[[{"header":{"parameterUnit":"m.s-1","parameterCategory":1,"la1":30.2991,"la2":30.254,"lo1":-89.0895,"lo2":-89.0444,"dy":0.0017,"dx":0.0017,"nx":28,"ny":28,"refTime":"2024-02-01T09:00:00:Z","depth":0,"parameterNumber":2,"parameterNumberName":"U-component_of_WINDS"},"data":[0,0,0,0,0,0,0,0,0,0,0,0,0,0,0,0,0,0,0,0,0,0,0,0,0,0,0,0,0,0,0,0,0,0,0,0,0,0,0,0,0,0,0,0,0,0,0,0,0,0,0,0,0,0,0,0,0,0,-1.5103,-1.5103,0,-1.5089,-1.5089,-1.5089,-1.5018,-1.5016,-1.5015,-1.5013,-1.5001,-1.5003,-1.5004,0,0,0,0,0,0,0,0,0,0,0,0,0,-1.5072,-1.5073,-1.5103,-1.5103,-1.5102,-1.5089,-1.5089,-1.5089,-1.5018,-1.5016,-1.5014,-1.5012,-1.5001,-1.5002,-1.5004,0,0,0,0,0,0,0,0,0,0,0,0,0,-1.5074,-1.5073,-1.5103,-1.5066,-1.5062,-1.5089,-1.5089,-1.5088,-1.5019,-1.5016,-1.5014,-1.5012,-1.5,-1.5002,-1.5004,-1.5066,0,0,-1.501,-1.5011,0,0,0,0,0,0,0,0,-1.5074,-1.5076,-1.5071,-1.5068,-1.5065,-1.5053,-1.5073,-1.5081,-1.502,-1.5035,-1.5013,-1.501,-1.5021,-1.5021,-1.5024,-1.5065,-1.5065,-1.501,-1.5011,-1.5012,-1.5012,0,0,0,0,0,0,0,-1.5074,-1.5076,-1.5097,-1.5071,-1.5067,-1.5051,-1.5049,-1.5074,-1.5042,-1.5034,-1.5029,-1.5028,-1.5018,-1.5022,-1.5023,-1.5065,-1.501,-1.5012,-1.5013,-1.5013,-1.5158,-1.5161,0,0,0,0,0,0,-1.5079,-1.5076,-1.5098,-1.5097,-1.5063,-1.5054,-1.5051,-1.5059,-1.5042,-1.5037,-1.503,-1.5025,-1.502,-1.5021,-1.5022,-1.5094,-1.5012,-1.5014,-1.5015,-1.5156,-1.5159,-1.5162,0,0,0,0,0,0,-1.5079,-1.5082,-1.5098,-1.5085,-1.5086,-1.5057,-1.5067,-1.506,-1.5064,-1.5039,-1.5033,-1.504,-1.5018,-1.502,-1.5056,-1.5093,-1.5014,-1.5016,-1.5153,-1.5157,-1.5161,-1.5239,0,0,0,0,0,0,-1.5078,-1.5082,-1.5104,-1.5086,-1.5087,-1.5131,-1.5069,-1.5062,-1.5067,-1.506,-1.5046,-1.5042,-1.5016,-1.5053,-1.5058,-1.5094,-1.5018,-1.5149,-1.5154,-1.5159,-1.5233,-1.5245,-1.5256,0,0,0,0,0,-1.5077,-1.5127,-1.5106,-1.5109,-1.5114,-1.5134,-1.5134,-1.5103,-1.507,-1.5093,-1.5077,-1.5042,-1.5088,-1.5058,-1.5062,-1.51,-1.5147,-1.5153,-1.5159,-1.5228,-1.5243,-1.5256,0,0,0,0,0,0,-1.515,-1.5124,-1.51,-1.5145,-1.5142,-1.5122,-1.5149,-1.512,-1.5127,-1.512,-1.5082,-1.5079,-1.5122,-1.5114,-1.508,-1.5159,-1.5112,-1.5119,-1.5163,-1.5177,-1.5188,-1.5189,-1.5019,0,0,0,0,0,-1.5172,-1.5189,-1.5165,-1.5207,-1.5207,-1.5179,-1.5186,-1.5162,-1.5158,-1.5157,-1.5144,-1.5142,-1.5156,-1.5166,-1.5177,-1.5232,-1.5229,-1.526,-1.5271,-1.5281,-1.5288,-1.5318,-1.5332,-1.5182,-1.5182,-1.5182,0,0,-1.5216,-1.5204,-1.5217,-1.5222,-1.5217,-1.5236,-1.5178,-1.5201,-1.5216,-1.516,-1.5194,-1.5185,-1.518,-1.5226,-1.5246,-1.5221,-1.5328,-1.5289,-1.5296,-1.5298,-1.5325,-1.534,-1.5352,-1.5186,-1.5186,-1.5185,0,0,-1.5307,-1.5299,-1.5333,-1.533,-1.5323,-1.5304,-1.5313,-1.5297,-1.5289,-1.5322,-1.5281,-1.5299,-1.5323,-1.5322,-1.5325,-1.5418,-1.5386,-1.5423,-1.5482,-1.5512,-1.5524,-1.5534,-1.5568,-1.5581,-1.5429,-1.543,-1.543,0,-1.5363,-1.539,-1.5355,-1.5381,-1.5386,-1.5336,-1.5372,-1.5371,-1.5368,-1.5373,-1.5345,-1.5376,-1.537,-1.5416,-1.5438,-1.5442,-1.5452,-1.5424,-1.5525,-1.5535,-1.5544,-1.5576,-1.5589,-1.5434,-1.5434,-1.5433,-1.5433,0,-1.546,-1.548,-1.5509,-1.5508,-1.5515,-1.5546,-1.5518,-1.553,-1.5506,-1.5491,-1.5526,-1.5517,-1.5526,-1.5535,-1.5512,-1.5579,-1.5564,-1.5531,-1.5482,-1.5563,-1.5593,-1.5605,-1.5441,-1.5439,-1.5438,-1.5437,0,0,-1.5595,-1.5575,-1.5587,-1.5586,-1.5576,-1.5591,-1.5621,-1.563,-1.5641,-1.5642,-1.5667,-1.569,-1.566,-1.5663,-1.564,-1.5666,-1.5742,-1.563,-1.563,-1.5652,-1.5816,-1.5841,-1.5856,-1.5721,-1.5723,-1.5725,-1.5817,0,-1.5683,-1.5731,-1.5702,-1.5755,-1.5774,-1.5728,-1.5755,-1.5752,-1.5739,-1.5754,-1.574,-1.5757,-1.5716,-1.5718,-1.5741,-1.5728,-1.5775,-1.5721,-1.5745,-1.5747,-1.5748,-1.5871,-1.5897,-1.5984,-1.5828,-1.583,-1.5832,0,-1.579,-1.5796,-1.5851,-1.5839,-1.5846,-1.5869,-1.5876,-1.5891,-1.5888,-1.5876,-1.5881,-1.5852,-1.5882,-1.5834,-1.5876,-1.584,-1.5848,-1.5843,-1.5846,-1.5847,-1.5794,-1.5877,-1.6011,-1.6025,-1.5849,-1.5848,-1.5847,0,-1.5885,-1.5906,-1.5942,-1.5943,-1.5929,-1.5947,-1.5943,-1.5937,-1.5945,-1.5951,-1.5956,-1.5966,-1.5972,-1.5981,-1.5957,-1.5924,-1.6002,-1.5952,-1.5995,-1.5996,-1.6013,-1.6013,-1.6152,-1.6018,-1.6018,-1.6018,-1.6018,0,-1.5986,-1.6022,-1.5984,-1.6007,-1.6046,-1.6013,-1.6054,-1.6044,-1.604,-1.6061,-1.6022,-1.6043,-1.6009,-1.6027,-1.6008,-1.6046,-1.6049,-1.6041,-1.6036,-1.6045,-1.6046,-1.605,-1.6044,-1.6021,-1.6021,-1.602,-1.6019,0,-1.6097,-1.6074,-1.611,-1.6095,-1.6092,-1.6122,-1.6109,-1.613,-1.6115,-1.6142,-1.6146,-1.6123,-1.6142,-1.6118,-1.6135,-1.6123,-1.6175,-1.616,-1.6176,-1.6172,-1.6217,-1.6213,-1.6364,-1.6382,-1.6237,-1.6238,-1.6239,0,-1.6163,-1.619,-1.6177,-1.6188,-1.6186,-1.6204,-1.6212,-1.6181,-1.6191,-1.6191,-1.6212,-1.6228,-1.6239,-1.6272,-1.6257,-1.6271,-1.6256,-1.6308,-1.6258,-1.6267,-1.6258,-1.6257,-1.6261,-1.6319,-1.632,-1.6322,-1.6323,0,-1.6283,-1.6271,-1.6283,-1.6292,-1.6303,-1.6309,-1.6312,-1.6323,-1.6291,-1.6305,-1.6324,-1.6333,-1.635,-1.6367,-1.6377,-1.6373,-1.6344,-1.6339,-1.635,-1.636,-1.6368,-1.6365,-1.6204,-1.6336,-1.6334,-1.6333,-1.6333,-1.6332,-1.6374,-1.6396,-1.6391,-1.6407,-1.6406,-1.6411,-1.643,-1.6418,-1.6433,-1.6444,-1.6426,-1.645,-1.6448,-1.6458,-1.6458,-1.6478,-1.6456,-1.6471,-1.6475,-1.648,-1.6487,-1.6365,-1.6479,-1.6479,-1.6479,-1.6478,-1.6478,0,-1.6493,-1.6488,-1.6503,-1.6508,-1.6522,-1.6492,-1.6495,-1.6508,-1.6529,-1.653,-1.6542,-1.6565,-1.6581,-1.6569,-1.6583,-1.6601,-1.6588,-1.6606,-1.6605,-1.6605,-1.6505,-1.6495,-1.6616,-1.6616,-1.6616,-1.6616,-1.6616,-1.6616,-1.6556,-1.6592,-1.658,-1.6616,-1.6611,-1.6634,-1.6638,-1.6643,-1.6643,-1.667,-1.6683,-1.6675,-1.6671,-1.6685,-1.67,-1.6696,-1.6703,-1.6726,-1.6718,-1.6625,-1.6611,-1.6598,-1.6588,-1.6728,-1.6728,-1.6815,-1.6816,-1.6817]},{"header":{"parameterUnit":"m.s-1","parameterCategory":1,"la1":30.2991,"la2":30.254,"lo1":-89.0895,"lo2":-89.0444,"dy":0.0017,"dx":0.0017,"nx":28,"ny":28,"refTime":"2024-02-01T09:00:00:Z","depth":0,"parameterNumber":3,"parameterNumberName":"V-component_of_WINDS"},"data":[0,0,0,0,0,0,0,0,0,0,0,0,0,0,0,0,0,0,0,0,0,0,0,0,0,0,0,0,0,0,0,0,0,0,0,0,0,0,0,0,0,0,0,0,0,0,0,0,0,0,0,0,0,0,0,0,0,0,1.4253,1.4253,0,1.4248,1.4248,1.4248,1.4274,1.4275,1.4276,1.4277,1.4269,1.4268,1.4267,0,0,0,0,0,0,0,0,0,0,0,0,0,1.4282,1.4281,1.4253,1.4253,1.4253,1.4248,1.4248,1.4248,1.4274,1.4275,1.4276,1.4277,1.4269,1.4268,1.4267,0,0,0,0,0,0,0,0,0,0,0,0,0,1.4273,1.4281,1.4253,1.4265,1.4266,1.4248,1.4248,1.4248,1.4274,1.4275,1.4276,1.4277,1.427,1.4268,1.4267,1.4236,0,0,1.4263,1.4262,0,0,0,0,0,0,0,0,1.4273,1.4271,1.4263,1.4264,1.4265,1.4263,1.4256,1.4244,1.4274,1.4271,1.4277,1.4278,1.4266,1.4265,1.4262,1.4236,1.4236,1.4263,1.4262,1.4261,1.4261,0,0,0,0,0,0,0,1.4274,1.4272,1.4251,1.4263,1.4265,1.427,1.427,1.4254,1.4262,1.4271,1.4273,1.4272,1.4267,1.4263,1.4262,1.4235,1.4263,1.4262,1.4261,1.426,1.4185,1.4184,0,0,0,0,0,0,1.4273,1.4272,1.4251,1.4251,1.4272,1.4269,1.4269,1.4263,1.4262,1.4263,1.4272,1.4274,1.4265,1.4263,1.4261,1.4225,1.4261,1.426,1.4259,1.4186,1.4185,1.4183,0,0,0,0,0,0,1.4273,1.4271,1.4251,1.4262,1.426,1.4267,1.426,1.4262,1.4258,1.4263,1.4264,1.4266,1.4265,1.4263,1.4243,1.4225,1.426,1.4258,1.4187,1.4186,1.4184,1.4153,0,0,0,0,0,0,1.4274,1.4271,1.4259,1.4262,1.4259,1.4233,1.4259,1.4261,1.4256,1.4259,1.4258,1.4259,1.4266,1.4245,1.4241,1.4224,1.4257,1.4189,1.4187,1.4184,1.4155,1.415,1.4146,0,0,0,0,0,1.4275,1.425,1.4259,1.4256,1.4245,1.4232,1.423,1.424,1.4255,1.4243,1.4246,1.4259,1.4228,1.4242,1.4239,1.4221,1.419,1.4187,1.4185,1.4158,1.4151,1.4146,0,0,0,0,0,0,1.4244,1.425,1.426,1.4235,1.4233,1.4236,1.4222,1.4233,1.4226,1.4229,1.4241,1.424,1.4217,1.4217,1.4233,1.4192,1.4212,1.4208,1.4192,1.4186,1.4181,1.4181,1.4256,0,0,0,0,0,1.4235,1.4224,1.423,1.4207,1.4206,1.4214,1.4208,1.4217,1.4214,1.4213,1.4215,1.4211,1.4201,1.4194,1.4185,1.4156,1.4156,1.4142,1.4138,1.4134,1.413,1.4115,1.4109,1.4174,1.4174,1.4174,0,0,1.4214,1.4217,1.4209,1.4201,1.42,1.4188,1.4213,1.4199,1.419,1.4211,1.4191,1.4193,1.419,1.4165,1.4154,1.4164,1.4112,1.413,1.4127,1.4125,1.4112,1.4106,1.41,1.4173,1.4173,1.4173,0,0,1.4171,1.4172,1.4154,1.4153,1.4152,1.4158,1.4154,1.4156,1.4157,1.4139,1.4154,1.4144,1.4126,1.4123,1.4119,1.4077,1.4089,1.4074,1.4048,1.4034,1.4029,1.4024,1.4009,1.4003,1.4071,1.4071,1.4071,0,1.4146,1.4129,1.4142,1.4128,1.4124,1.4144,1.4125,1.4123,1.4119,1.4115,1.4127,1.4106,1.4105,1.4081,1.4071,1.4067,1.4062,1.4073,1.4029,1.4024,1.402,1.4005,1.4,1.4069,1.4069,1.4069,1.4069,0,1.4098,1.4086,1.4071,1.4068,1.4063,1.4046,1.4056,1.4049,1.4058,1.4063,1.4044,1.4044,1.4035,1.4031,1.4038,1.4007,1.4013,1.4027,1.4047,1.4012,1.3998,1.3993,1.4066,1.4067,1.4067,1.4068,0,0,1.4033,1.4039,1.4033,1.4032,1.4034,1.4024,1.4009,1.4002,1.3995,1.3992,1.3979,1.3964,1.3977,1.3973,1.3981,1.3969,1.3935,1.3984,1.3984,1.3974,1.39,1.389,1.3883,1.3944,1.3943,1.3942,1.39,0,1.3991,1.3965,1.3977,1.395,1.3939,1.3959,1.3945,1.3944,1.3949,1.394,1.3945,1.3934,1.3952,1.3949,1.3938,1.3942,1.392,1.3945,1.393,1.393,1.393,1.3876,1.3864,1.3825,1.3895,1.3894,1.3894,0,1.3937,1.3933,1.3905,1.3909,1.3905,1.3893,1.3888,1.388,1.3879,1.3883,1.388,1.3891,1.3876,1.3897,1.3876,1.3893,1.3888,1.3889,1.3888,1.3885,1.3909,1.3871,1.3813,1.3806,1.3886,1.3886,1.3887,0,1.3892,1.388,1.3862,1.386,1.3865,1.3856,1.3857,1.3858,1.3853,1.3849,1.3846,1.384,1.3836,1.383,1.384,1.3854,1.3817,1.3839,1.3819,1.3819,1.3809,1.3809,1.3748,1.3808,1.3808,1.3808,1.3808,0,1.3843,1.3824,1.3842,1.383,1.3811,1.3825,1.3805,1.3809,1.3809,1.3799,1.3816,1.3805,1.3819,1.3809,1.3817,1.3798,1.3796,1.3799,1.3801,1.3797,1.3796,1.3792,1.3795,1.3806,1.3807,1.3807,1.3807,0,1.3788,1.3799,1.3781,1.3787,1.3789,1.3774,1.3779,1.3769,1.3775,1.3762,1.3759,1.3769,1.3759,1.3768,1.3758,1.3764,1.3738,1.3745,1.3739,1.374,1.372,1.3721,1.3652,1.3644,1.371,1.3709,1.3709,0,1.3755,1.3742,1.3748,1.3743,1.3744,1.3735,1.373,1.3745,1.3739,1.3739,1.3728,1.372,1.3714,1.3698,1.3703,1.3696,1.3702,1.3678,1.37,1.3697,1.3701,1.3701,1.3699,1.3673,1.3672,1.3672,1.3671,0,1.3696,1.3702,1.3696,1.3692,1.3687,1.3684,1.3683,1.3677,1.3692,1.3685,1.3676,1.3672,1.3663,1.3654,1.3649,1.365,1.3662,1.3665,1.366,1.3655,1.3651,1.3652,1.3725,1.3666,1.3666,1.3667,1.3667,1.3667,1.3651,1.364,1.3643,1.3636,1.3637,1.3635,1.3626,1.3632,1.3625,1.3619,1.3628,1.3617,1.3617,1.3612,1.3612,1.3603,1.3612,1.3605,1.3603,1.3601,1.3597,1.3654,1.3602,1.3602,1.3602,1.3602,1.3602,0,1.3592,1.3595,1.3589,1.3587,1.3581,1.3595,1.3595,1.3589,1.3579,1.3579,1.3573,1.3563,1.3555,1.3561,1.3555,1.3546,1.3552,1.3544,1.3544,1.3544,1.3589,1.3594,1.3539,1.3539,1.354,1.354,1.354,1.354,1.356,1.3543,1.355,1.3534,1.3537,1.3527,1.3525,1.3524,1.3524,1.3512,1.3507,1.3511,1.3513,1.3508,1.3501,1.3503,1.3499,1.3489,1.3493,1.3535,1.3541,1.3547,1.3551,1.3488,1.3488,1.3448,1.3448,1.3448]}]]